iso_date,epoch_date,Year,Hour,Min,DOY,POS_DOY,Lat,Lon,BP,Ts,Ta,has_bp,has_ts,has_ta,BuoyID,Buoy_Type,Buoy_Owner,Logistics,Hemisphere
2020-08-26T15:00:00Z,1598454000,2020,15,0,239.625,239.625,72.9572,-155.6443,1018.3,-0.43,-999.0,yes,yes,no,300534061801400,unknown,unknown,unknown,North
2020-08-26T16:00:02Z,1598457603,2020,16,0,239.6667,239.6667,72.96245,-155.6489,1018.7,-0.29,-999.0,yes,yes,no,300534061801400,unknown,unknown,unknown,North
2020-08-26T16:59:57Z,1598461197,2020,17,0,239.7083,239.7083,72.96783,-155.6487,1018.9,-0.13,-999.0,yes,yes,no,300534061801400,unknown,unknown,unknown,North
2020-08-26T18:00:00Z,1598464800,2020,18,0,239.75,239.75,72.97282,-155.6508,1019.2,0.01,-999.0,yes,yes,no,300534061801400,unknown,unknown,unknown,North
2020-08-26T19:00:02Z,1598468403,2020,19,0,239.7917,239.7917,72.97707,-155.6539,1019.5,0.08,-999.0,yes,yes,no,300534061801400,unknown,unknown,unknown,North
2020-08-26T21:00:00Z,1598475600,2020,21,0,239.875,239.875,72.98398,-155.6746,1020.1,0.42,-999.0,yes,yes,no,300534061801400,unknown,unknown,unknown,North
2020-08-26T22:00:02Z,1598479203,2020,22,0,239.9167,239.9167,72.98803,-155.6875,1020.3,0.88,-999.0,yes,yes,no,300534061801400,unknown,unknown,unknown,North
2020-08-26T22:59:57Z,1598482797,2020,23,0,239.9583,239.9583,72.99165,-155.7016,1020.4,1.15,-999.0,yes,yes,no,300534061801400,unknown,unknown,unknown,North
2020-08-27T00:00:00Z,1598486400,2020,0,0,240.0,240.0,72.99606,-155.7171,1020.4,1.0,-999.0,yes,yes,no,300534061801400,unknown,unknown,unknown,North
2020-08-27T01:00:02Z,1598490003,2020,1,0,240.0417,240.0417,73.00156,-155.7337,1020.7,0.62,-999.0,yes,yes,no,300534061801400,unknown,unknown,unknown,North
2020-08-27T01:59:57Z,1598493597,2020,2,0,240.0833,240.0833,73.00822,-155.7476,1020.8,0.54,-999.0,yes,yes,no,300534061801400,unknown,unknown,unknown,North
2020-08-27T03:00:00Z,1598497200,2020,3,0,240.125,240.125,73.01358,-155.7594,1020.9,0.32,-999.0,yes,yes,no,300534061801400,unknown,unknown,unknown,North
2020-08-27T04:00:02Z,1598500803,2020,4,0,240.1667,240.1667,73.01749,-155.7717,1021.1,0.21,-999.0,yes,yes,no,300534061801400,unknown,unknown,unknown,North
2020-08-27T04:59:57Z,1598504397,2020,5,0,240.2083,240.2083,73.02074,-155.7852,1021.4,0.04,-999.0,yes,yes,no,300534061801400,unknown,unknown,unknown,North
2020-08-27T06:00:00Z,1598508000,2020,6,0,240.25,240.25,73.02318,-155.7974,1021.6,0.02,-999.0,yes,yes,no,300534061801400,unknown,unknown,unknown,North
2020-08-27T07:00:02Z,1598511603,2020,7,0,240.2917,240.2917,73.02509,-155.8109,1022.0,-0.1,-999.0,yes,yes,no,300534061801400,unknown,unknown,unknown,North
2020-08-27T07:59:57Z,1598515197,2020,8,0,240.3333,240.3333,73.02689,-155.8269,1022.3,-0.18,-999.0,yes,yes,no,300534061801400,unknown,unknown,unknown,North
2020-08-27T09:00:00Z,1598518800,2020,9,0,240.375,240.375,73.02974,-155.8499,1022.3,-0.22,-999.0,yes,yes,no,300534061801400,unknown,unknown,unknown,North
2020-08-27T10:00:02Z,1598522403,2020,10,0,240.4167,240.4167,73.033,-155.8739,1022.6,-0.3,-999.0,yes,yes,no,300534061801400,unknown,unknown,unknown,North
2020-08-27T10:59:57Z,1598525997,2020,11,0,240.4583,240.4583,73.03479,-155.8957,1022.7,-0.29,-999.0,yes,yes,no,300534061801400,unknown,unknown,unknown,North
2020-08-27T12:00:00Z,1598529600,2020,12,0,240.5,240.5,73.03699,-155.9146,1022.6,-0.39,-999.0,yes,yes,no,300534061801400,unknown,unknown,unknown,North
2020-08-27T13:00:02Z,1598533203,2020,13,0,240.5417,240.5417,73.04007,-155.9315,1022.7,-0.36,-999.0,yes,yes,no,300534061801400,unknown,unknown,unknown,North
2020-08-27T13:59:57Z,1598536797,2020,14,0,240.5833,240.5833,73.04419,-155.9477,1022.8,-0.39,-999.0,yes,yes,no,300534061801400,unknown,unknown,unknown,North
2020-08-27T15:00:00Z,1598540400,2020,15,0,240.625,240.625,73.04824,-155.9635,1022.9,-0.52,-999.0,yes,yes,no,300534061801400,unknown,unknown,unknown,North
2020-08-27T16:00:02Z,1598544003,2020,16,0,240.6667,240.6667,73.05186,-155.9801,1023.2,-0.52,-999.0,yes,yes,no,300534061801400,unknown,unknown,unknown,North
2020-08-27T16:59:57Z,1598547597,2020,17,0,240.7083,240.7083,73.05526,-156.0019,1023.4,-0.13,-999.0,yes,yes,no,300534061801400,unknown,unknown,unknown,North
2020-08-27T18:00:00Z,1598551200,2020,18,0,240.75,240.75,73.05811,-156.0243,1023.5,-0.15,-999.0,yes,yes,no,300534061801400,unknown,unknown,unknown,North
2020-08-27T19:00:02Z,1598554803,2020,19,0,240.7917,240.7917,73.06174,-156.0464,1023.6,-0.15,-999.0,yes,yes,no,300534061801400,unknown,unknown,unknown,North
2020-08-27T19:59:57Z,1598558397,2020,20,0,240.8333,240.8333,73.0657,-156.0673,1023.7,-0.09,-999.0,yes,yes,no,300534061801400,unknown,unknown,unknown,North
2020-08-27T21:00:00Z,1598562000,2020,21,0,240.875,240.875,73.06895,-156.0912,1023.8,0.08,-999.0,yes,yes,no,300534061801400,unknown,unknown,unknown,North
2020-08-27T22:00:02Z,1598565603,2020,22,0,240.9167,240.9167,73.0723,-156.1194,1023.8,0.24,-999.0,yes,yes,no,300534061801400,unknown,unknown,unknown,North
2020-08-27T22:59:57Z,1598569197,2020,23,0,240.9583,240.9583,73.0758,-156.1502,1023.8,0.6,-999.0,yes,yes,no,300534061801400,unknown,unknown,unknown,North
2020-08-28T00:00:00Z,1598572800,2020,0,0,241.0,241.0,73.07898,-156.1822,1023.8,1.11,-999.0,yes,yes,no,300534061801400,unknown,unknown,unknown,North
2020-08-28T01:00:02Z,1598576403,2020,1,0,241.0417,241.0417,73.08245,-156.212,1023.9,1.41,-999.0,yes,yes,no,300534061801400,unknown,unknown,unknown,North
2020-08-28T01:59:57Z,1598579997,2020,2,0,241.0833,241.0833,73.08606,-156.2353,1023.8,1.14,-999.0,yes,yes,no,300534061801400,unknown,unknown,unknown,North
2020-08-28T03:00:00Z,1598583600,2020,3,0,241.125,241.125,73.08926,-156.2541,1023.9,0.9,-999.0,yes,yes,no,300534061801400,unknown,unknown,unknown,North
2020-08-28T04:00:02Z,1598587203,2020,4,0,241.1667,241.1667,73.09142,-156.2713,1023.9,0.5,-999.0,yes,yes,no,300534061801400,unknown,unknown,unknown,North
2020-08-28T04:59:57Z,1598590797,2020,5,0,241.2083,241.2083,73.09252,-156.2882,1023.7,0.21,-999.0,yes,yes,no,300534061801400,unknown,unknown,unknown,North
2020-08-28T06:00:00Z,1598594400,2020,6,0,241.25,241.25,73.09346,-156.3061,1023.9,0.04,-999.0,yes,yes,no,300534061801400,unknown,unknown,unknown,North
2020-08-28T07:00:02Z,1598598003,2020,7,0,241.2917,241.2917,73.09447,-156.3282,1024.0,-0.09,-999.0,yes,yes,no,300534061801400,unknown,unknown,unknown,North
2020-08-28T07:59:57Z,1598601597,2020,8,0,241.3333,241.3333,73.09668,-156.3582,1024.2,-0.14,-999.0,yes,yes,no,300534061801400,unknown,unknown,unknown,North
2020-08-28T09:00:00Z,1598605200,2020,9,0,241.375,241.375,73.10178,-156.3966,1024.3,-1.09,-999.0,yes,yes,no,300534061801400,unknown,unknown,unknown,North
2020-08-28T10:00:02Z,1598608803,2020,10,0,241.4167,241.4167,73.10413,-156.434,1024.4,-1.16,-999.0,yes,yes,no,300534061801400,unknown,unknown,unknown,North
2020-08-28T10:59:57Z,1598612397,2020,11,0,241.4583,241.4583,73.10506,-156.4682,1024.3,-1.24,-999.0,yes,yes,no,300534061801400,unknown,unknown,unknown,North
2020-08-28T12:00:00Z,1598616000,2020,12,0,241.5,241.5,73.10601,-156.4988,1024.3,-1.3,-999.0,yes,yes,no,300534061801400,unknown,unknown,unknown,North
2020-08-28T13:00:02Z,1598619603,2020,13,0,241.5417,241.5417,73.10755,-156.528,1024.3,-1.19,-999.0,yes,yes,no,300534061801400,unknown,unknown,unknown,North
2020-08-28T13:59:57Z,1598623197,2020,14,0,241.5833,241.5833,73.10934,-156.5616,1024.2,-1.06,-999.0,yes,yes,no,300534061801400,unknown,unknown,unknown,North
2020-08-28T15:00:00Z,1598626800,2020,15,0,241.625,241.625,73.1106,-156.5975,1024.2,-0.99,-999.0,yes,yes,no,300534061801400,unknown,unknown,unknown,North
2020-08-28T16:00:02Z,1598630403,2020,16,0,241.6667,241.6667,73.11154,-156.6414,1024.2,-0.95,-999.0,yes,yes,no,300534061801400,unknown,unknown,unknown,North
2020-08-28T16:59:57Z,1598633997,2020,17,0,241.7083,241.7083,73.112,-156.6954,1024.2,-0.88,-999.0,yes,yes,no,300534061801400,unknown,unknown,unknown,North
2020-08-28T18:00:00Z,1598637600,2020,18,0,241.75,241.75,73.11385,-156.7503,1024.2,-0.83,-999.0,yes,yes,no,300534061801400,unknown,unknown,unknown,North
2020-08-28T19:00:02Z,1598641203,2020,19,0,241.7917,241.7917,73.1169,-156.7975,1024.4,-0.7,-999.0,yes,yes,no,300534061801400,unknown,unknown,unknown,North
2020-08-28T19:59:57Z,1598644797,2020,20,0,241.8333,241.8333,73.12043,-156.8441,1024.5,-0.47,-999.0,yes,yes,no,300534061801400,unknown,unknown,unknown,North
2020-08-28T21:00:00Z,1598648400,2020,21,0,241.875,241.875,73.12286,-156.8871,1024.6,-0.19,-999.0,yes,yes,no,300534061801400,unknown,unknown,unknown,North
2020-08-28T22:00:02Z,1598652003,2020,22,0,241.9167,241.9167,73.12385,-156.925,1024.6,-0.01,-999.0,yes,yes,no,300534061801400,unknown,unknown,unknown,North
2020-08-28T22:59:57Z,1598655597,2020,23,0,241.9583,241.9583,73.12333,-156.9612,1024.6,0.11,-999.0,yes,yes,no,300534061801400,unknown,unknown,unknown,North
2020-08-29T00:00:00Z,1598659200,2020,0,0,242.0,242.0,73.12292,-156.9962,1024.5,0.1,-999.0,yes,yes,no,300534061801400,unknown,unknown,unknown,North
2020-08-29T01:00:02Z,1598662803,2020,1,0,242.0417,242.0417,73.1222,-157.0337,1024.6,0.02,-999.0,yes,yes,no,300534061801400,unknown,unknown,unknown,North
2020-08-29T01:59:57Z,1598666397,2020,2,0,242.0833,242.0833,73.12117,-157.0728,1024.7,-0.05,-999.0,yes,yes,no,300534061801400,unknown,unknown,unknown,North
2020-08-29T03:00:00Z,1598670000,2020,3,0,242.125,242.125,73.1209,-157.1124,1024.8,-0.19,-999.0,yes,yes,no,300534061801400,unknown,unknown,unknown,North
2020-08-29T04:00:02Z,1598673603,2020,4,0,242.1667,242.1667,73.12072,-157.1487,1024.9,-0.24,-999.0,yes,yes,no,300534061801400,unknown,unknown,unknown,North
2020-08-29T04:59:57Z,1598677197,2020,5,0,242.2083,242.2083,73.12076,-157.1837,1024.9,-0.4,-999.0,yes,yes,no,300534061801400,unknown,unknown,unknown,North
2020-08-29T06:00:00Z,1598680800,2020,6,0,242.25,242.25,73.12106,-157.2192,1024.8,-0.53,-999.0,yes,yes,no,300534061801400,unknown,unknown,unknown,North
2020-08-29T07:00:02Z,1598684403,2020,7,0,242.2917,242.2917,73.12167,-157.2546,1025.0,-0.63,-999.0,yes,yes,no,300534061801400,unknown,unknown,unknown,North
2020-08-29T07:59:57Z,1598687997,2020,8,0,242.3333,242.3333,73.12281,-157.2887,1025.0,-0.7,-999.0,yes,yes,no,300534061801400,unknown,unknown,unknown,North
2020-08-29T09:00:00Z,1598691600,2020,9,0,242.375,242.375,73.12472,-157.3176,1025.2,-0.76,-999.0,yes,yes,no,300534061801400,unknown,unknown,unknown,North
2020-08-29T10:59:57Z,1598698797,2020,11,0,242.4583,242.4583,73.12991,-157.3601,1025.0,-0.68,-999.0,yes,yes,no,300534061801400,unknown,unknown,unknown,North
2020-08-29T12:00:00Z,1598702400,2020,12,0,242.5,242.5,73.13007,-157.3738,1024.8,-0.67,-999.0,yes,yes,no,300534061801400,unknown,unknown,unknown,North
2020-08-29T13:00:02Z,1598706003,2020,13,0,242.5417,242.5417,73.128,-157.3849,1024.6,-0.74,-999.0,yes,yes,no,300534061801400,unknown,unknown,unknown,North
2020-08-29T13:59:57Z,1598709597,2020,14,0,242.5833,242.5833,73.12342,-157.4009,1024.3,-0.8,-999.0,yes,yes,no,300534061801400,unknown,unknown,unknown,North
2020-08-29T15:00:00Z,1598713200,2020,15,0,242.625,242.625,73.1187,-157.4251,1024.1,-0.76,-999.0,yes,yes,no,300534061801400,unknown,unknown,unknown,North
2020-08-29T16:00:02Z,1598716803,2020,16,0,242.6667,242.6667,73.11404,-157.4599,1023.9,-0.71,-999.0,yes,yes,no,300534061801400,unknown,unknown,unknown,North
2020-08-29T16:59:57Z,1598720397,2020,17,0,242.7083,242.7083,73.11118,-157.504,1023.6,-0.63,-999.0,yes,yes,no,300534061801400,unknown,unknown,unknown,North
2020-08-29T18:00:00Z,1598724000,2020,18,0,242.75,242.75,73.11084,-157.5513,1023.4,-0.55,-999.0,yes,yes,no,300534061801400,unknown,unknown,unknown,North
2020-08-29T19:00:02Z,1598727603,2020,19,0,242.7917,242.7917,73.11275,-157.6022,1023.0,-0.36,-999.0,yes,yes,no,300534061801400,unknown,unknown,unknown,North
2020-08-29T19:59:57Z,1598731197,2020,20,0,242.8333,242.8333,73.11648,-157.6596,1023.0,-0.19,-999.0,yes,yes,no,300534061801400,unknown,unknown,unknown,North
2020-08-29T21:00:00Z,1598734800,2020,21,0,242.875,242.875,73.1246,-157.7203,1022.7,0.04,-999.0,yes,yes,no,300534061801400,unknown,unknown,unknown,North
2020-08-29T22:00:02Z,1598738403,2020,22,0,242.9167,242.9167,73.13725,-157.7774,1022.4,0.26,-999.0,yes,yes,no,300534061801400,unknown,unknown,unknown,North
2020-08-29T22:59:57Z,1598741997,2020,23,0,242.9583,242.9583,73.1515,-157.8246,1022.1,0.35,-999.0,yes,yes,no,300534061801400,unknown,unknown,unknown,North
2020-08-30T00:00:00Z,1598745600,2020,0,0,243.0,243.0,73.16592,-157.8638,1021.8,0.37,-999.0,yes,yes,no,300534061801400,unknown,unknown,unknown,North
2020-08-30T01:00:02Z,1598749203,2020,1,0,243.0417,243.0417,73.18034,-157.9017,1021.5,0.34,-999.0,yes,yes,no,300534061801400,unknown,unknown,unknown,North
2020-08-30T03:00:00Z,1598756400,2020,3,0,243.125,243.125,73.21053,-157.9674,1020.7,0.19,-999.0,yes,yes,no,300534061801400,unknown,unknown,unknown,North
2020-08-30T04:00:02Z,1598760003,2020,4,0,243.1667,243.1667,73.22559,-157.9957,1020.3,0.17,-999.0,yes,yes,no,300534061801400,unknown,unknown,unknown,North
2020-08-30T04:59:57Z,1598763597,2020,5,0,243.2083,243.2083,73.23988,-158.0217,1019.8,0.08,-999.0,yes,yes,no,300534061801400,unknown,unknown,unknown,North
2020-08-30T06:00:00Z,1598767200,2020,6,0,243.25,243.25,73.25275,-158.043,1019.4,0.02,-999.0,yes,yes,no,300534061801400,unknown,unknown,unknown,North
2020-08-30T07:00:02Z,1598770803,2020,7,0,243.2917,243.2917,73.26325,-158.0691,1019.1,-0.01,-999.0,yes,yes,no,300534061801400,unknown,unknown,unknown,North
2020-08-30T07:59:57Z,1598774397,2020,8,0,243.3333,243.3333,73.27429,-158.104,1018.9,-0.03,-999.0,yes,yes,no,300534061801400,unknown,unknown,unknown,North
2020-08-30T09:00:00Z,1598778000,2020,9,0,243.375,243.375,73.28751,-158.147,1018.7,-0.05,-999.0,yes,yes,no,300534061801400,unknown,unknown,unknown,North
2020-08-30T10:00:02Z,1598781603,2020,10,0,243.4167,243.4167,73.30214,-158.1942,1018.2,-0.07,-999.0,yes,yes,no,300534061801400,unknown,unknown,unknown,North
2020-08-30T10:59:57Z,1598785197,2020,11,0,243.4583,243.4583,73.31934,-158.239,1017.8,-0.08,-999.0,yes,yes,no,300534061801400,unknown,unknown,unknown,North
2020-08-30T12:00:00Z,1598788800,2020,12,0,243.5,243.5,73.33926,-158.2746,1017.4,-0.1,-999.0,yes,yes,no,300534061801400,unknown,unknown,unknown,North
2020-08-30T13:00:02Z,1598792403,2020,13,0,243.5417,243.5417,73.35885,-158.3043,1017.0,-0.1,-999.0,yes,yes,no,300534061801400,unknown,unknown,unknown,North
2020-08-30T13:59:57Z,1598795997,2020,14,0,243.5833,243.5833,73.37683,-158.3233,1016.6,-0.12,-999.0,yes,yes,no,300534061801400,unknown,unknown,unknown,North
2020-08-30T15:00:00Z,1598799600,2020,15,0,243.625,243.625,73.39215,-158.338,1016.0,-0.17,-999.0,yes,yes,no,300534061801400,unknown,unknown,unknown,North
2020-08-30T16:00:02Z,1598803203,2020,16,0,243.6667,243.6667,73.4051,-158.3529,1015.6,-0.19,-999.0,yes,yes,no,300534061801400,unknown,unknown,unknown,North
2020-08-30T16:59:57Z,1598806797,2020,17,0,243.7083,243.7083,73.41647,-158.3722,1015.2,-0.12,-999.0,yes,yes,no,300534061801400,unknown,unknown,unknown,North
2020-08-30T18:00:00Z,1598810400,2020,18,0,243.75,243.75,73.42685,-158.4013,1014.7,-0.03,-999.0,yes,yes,no,300534061801400,unknown,unknown,unknown,North
2020-08-30T19:00:02Z,1598814003,2020,19,0,243.7917,243.7917,73.43703,-158.4412,1014.4,0.03,-999.0,yes,yes,no,300534061801400,unknown,unknown,unknown,North
2020-08-30T19:59:57Z,1598817597,2020,20,0,243.8333,243.8333,73.44679,-158.4916,1014.1,0.11,-999.0,yes,yes,no,300534061801400,unknown,unknown,unknown,North
2020-08-30T21:00:00Z,1598821200,2020,21,0,243.875,243.875,73.45817,-158.5469,1013.9,0.19,-999.0,yes,yes,no,300534061801400,unknown,unknown,unknown,North
2020-08-30T22:00:02Z,1598824803,2020,22,0,243.9167,243.9167,73.47021,-158.605,1013.7,0.28,-999.0,yes,yes,no,300534061801400,unknown,unknown,unknown,North
2020-08-30T22:59:57Z,1598828397,2020,23,0,243.9583,243.9583,73.48322,-158.6644,1012.9,0.36,-999.0,yes,yes,no,300534061801400,unknown,unknown,unknown,North
2020-08-31T00:00:00Z,1598832000,2020,0,0,244.0,244.0,73.49646,-158.7244,1012.5,0.36,-999.0,yes,yes,no,300534061801400,unknown,unknown,unknown,North
2020-08-31T01:00:02Z,1598835603,2020,1,0,244.0417,244.0417,73.5097,-158.7839,1011.9,0.35,-999.0,yes,yes,no,300534061801400,unknown,unknown,unknown,North
2020-08-31T01:59:57Z,1598839197,2020,2,0,244.0833,244.0833,73.5219,-158.8425,1011.4,0.32,-999.0,yes,yes,no,300534061801400,unknown,unknown,unknown,North
2020-08-31T03:00:00Z,1598842800,2020,3,0,244.125,244.125,73.533,-158.8967,1010.9,0.27,-999.0,yes,yes,no,300534061801400,unknown,unknown,unknown,North
2020-08-31T04:00:02Z,1598846403,2020,4,0,244.1667,244.1667,73.54262,-158.9504,1010.4,0.16,-999.0,yes,yes,no,300534061801400,unknown,unknown,unknown,North
2020-08-31T04:59:57Z,1598849997,2020,5,0,244.2083,244.2083,73.54985,-159.004,1010.0,0.08,-999.0,yes,yes,no,300534061801400,unknown,unknown,unknown,North
2020-08-31T06:00:00Z,1598853600,2020,6,0,244.25,244.25,73.55555,-159.0615,1009.6,0.04,-999.0,yes,yes,no,300534061801400,unknown,unknown,unknown,North
2020-08-31T07:00:02Z,1598857203,2020,7,0,244.2917,244.2917,73.55986,-159.1254,1009.4,0.02,-999.0,yes,yes,no,300534061801400,unknown,unknown,unknown,North
2020-08-31T07:59:57Z,1598860797,2020,8,0,244.3333,244.3333,73.56364,-159.2027,1009.2,0.0,-999.0,yes,yes,no,300534061801400,unknown,unknown,unknown,North
2020-08-31T09:00:00Z,1598864400,2020,9,0,244.375,244.375,73.5674,-159.2893,1009.0,0.0,-999.0,yes,yes,no,300534061801400,unknown,unknown,unknown,North
2020-08-31T10:00:02Z,1598868003,2020,10,0,244.4167,244.4167,73.57037,-159.3859,1008.7,0.01,-999.0,yes,yes,no,300534061801400,unknown,unknown,unknown,North
2020-08-31T10:59:57Z,1598871597,2020,11,0,244.4583,244.4583,73.5726,-159.4885,1008.6,0.01,-999.0,yes,yes,no,300534061801400,unknown,unknown,unknown,North
2020-08-31T12:00:00Z,1598875200,2020,12,0,244.5,244.5,73.5751,-159.5955,1008.2,0.07,-999.0,yes,yes,no,300534061801400,unknown,unknown,unknown,North
2020-08-31T13:00:02Z,1598878803,2020,13,0,244.5417,244.5417,73.57747,-159.7032,1008.0,0.12,-999.0,yes,yes,no,300534061801400,unknown,unknown,unknown,North
2020-08-31T13:59:57Z,1598882397,2020,14,0,244.5833,244.5833,73.58008,-159.8117,1008.0,-0.08,-999.0,yes,yes,no,300534061801400,unknown,unknown,unknown,North
2020-08-31T15:00:00Z,1598886000,2020,15,0,244.625,244.625,73.58241,-159.9148,1007.8,-0.05,-999.0,yes,yes,no,300534061801400,unknown,unknown,unknown,North
2020-08-31T16:00:02Z,1598889603,2020,16,0,244.6667,244.6667,73.58282,-160.0155,1008.0,-0.05,-999.0,yes,yes,no,300534061801400,unknown,unknown,unknown,North
2020-08-31T16:59:57Z,1598893197,2020,17,0,244.7083,244.7083,73.58215,-160.1137,1008.1,0.04,-999.0,yes,yes,no,300534061801400,unknown,unknown,unknown,North
2020-08-31T18:00:00Z,1598896800,2020,18,0,244.75,244.75,73.58107,-160.2096,1008.4,0.11,-999.0,yes,yes,no,300534061801400,unknown,unknown,unknown,North
2020-08-31T19:00:02Z,1598900403,2020,19,0,244.7917,244.7917,73.57947,-160.3052,1008.8,0.2,-999.0,yes,yes,no,300534061801400,unknown,unknown,unknown,North
2020-08-31T19:59:57Z,1598903997,2020,20,0,244.8333,244.8333,73.57867,-160.4021,1009.2,0.36,-999.0,yes,yes,no,300534061801400,unknown,unknown,unknown,North
2020-08-31T21:00:00Z,1598907600,2020,21,0,244.875,244.875,73.57871,-160.5045,1010.3,2.73,-999.0,yes,yes,no,300534061801400,unknown,unknown,unknown,North
2020-08-31T22:00:02Z,1598911203,2020,22,0,244.9167,244.9167,73.5772,-160.6177,1011.6,2.61,-999.0,yes,yes,no,300534061801400,unknown,unknown,unknown,North
2020-08-31T22:59:57Z,1598914797,2020,23,0,244.9583,244.9583,73.57674,-160.7275,1011.7,2.62,-999.0,yes,yes,no,300534061801400,unknown,unknown,unknown,North
2020-09-01T00:00:00Z,1598918400,2020,0,0,245.0,245.0,73.57677,-160.8237,1012.2,3.02,-999.0,yes,yes,no,300534061801400,unknown,unknown,unknown,North
2020-09-01T01:00:02Z,1598922003,2020,1,0,245.0417,245.0417,73.57686,-160.9136,1012.2,3.09,-999.0,yes,yes,no,300534061801400,unknown,unknown,unknown,North
2020-09-01T03:00:00Z,1598929200,2020,3,0,245.125,245.125,73.58159,-161.0831,1011.7,2.92,-999.0,yes,yes,no,300534061801400,unknown,unknown,unknown,North
2020-09-01T04:00:02Z,1598932803,2020,4,0,245.1667,245.1667,73.58759,-161.1628,1011.4,2.75,-999.0,yes,yes,no,300534061801400,unknown,unknown,unknown,North
2020-09-01T04:59:57Z,1598936397,2020,5,0,245.2083,245.2083,73.59467,-161.2305,1011.2,2.68,-999.0,yes,yes,no,300534061801400,unknown,unknown,unknown,North
2020-09-01T06:00:00Z,1598940000,2020,6,0,245.25,245.25,73.60358,-161.2889,1011.3,2.51,-999.0,yes,yes,no,300534061801400,unknown,unknown,unknown,North
2020-09-01T07:00:02Z,1598943603,2020,7,0,245.2917,245.2917,73.61358,-161.3326,1011.7,2.57,-999.0,yes,yes,no,300534061801400,unknown,unknown,unknown,North
2020-09-01T07:59:57Z,1598947197,2020,8,0,245.3333,245.3333,73.62477,-161.3717,1011.8,2.52,-999.0,yes,yes,no,300534061801400,unknown,unknown,unknown,North
2020-09-01T09:00:00Z,1598950800,2020,9,0,245.375,245.375,73.63709,-161.3996,1012.5,2.53,-999.0,yes,yes,no,300534061801400,unknown,unknown,unknown,North
2020-09-01T10:00:02Z,1598954403,2020,10,0,245.4167,245.4167,73.64973,-161.4226,1012.7,2.55,-999.0,yes,yes,no,300534061801400,unknown,unknown,unknown,North
2020-09-01T10:59:57Z,1598957997,2020,11,0,245.4583,245.4583,73.66228,-161.4446,1012.8,2.47,-999.0,yes,yes,no,300534061801400,unknown,unknown,unknown,North
2020-09-01T12:00:00Z,1598961600,2020,12,0,245.5,245.5,73.67408,-161.4628,1013.0,2.41,-999.0,yes,yes,no,300534061801400,unknown,unknown,unknown,North
2020-09-01T13:00:02Z,1598965203,2020,13,0,245.5417,245.5417,73.68636,-161.4885,1012.9,2.41,-999.0,yes,yes,no,300534061801400,unknown,unknown,unknown,North
2020-09-01T13:59:57Z,1598968797,2020,14,0,245.5833,245.5833,73.69986,-161.5193,1013.1,2.36,-999.0,yes,yes,no,300534061801400,unknown,unknown,unknown,North
2020-09-01T15:00:00Z,1598972400,2020,15,0,245.625,245.625,73.71424,-161.5469,1013.8,2.42,-999.0,yes,yes,no,300534061801400,unknown,unknown,unknown,North
2020-09-01T16:00:02Z,1598976003,2020,16,0,245.6667,245.6667,73.72973,-161.5722,1014.2,2.77,-999.0,yes,yes,no,300534061801400,unknown,unknown,unknown,North
2020-09-01T18:00:00Z,1598983200,2020,18,0,245.75,245.75,73.76868,-161.623,1015.1,3.02,-999.0,yes,yes,no,300534061801400,unknown,unknown,unknown,North
2020-09-01T19:00:02Z,1598986803,2020,19,0,245.7917,245.7917,73.79269,-161.6389,1015.3,3.08,-999.0,yes,yes,no,300534061801400,unknown,unknown,unknown,North
2020-09-01T19:59:57Z,1598990397,2020,20,0,245.8333,245.8333,73.81768,-161.6499,1015.5,3.1,-999.0,yes,yes,no,300534061801400,unknown,unknown,unknown,North
2020-09-01T21:00:00Z,1598994000,2020,21,0,245.875,245.875,73.8401,-161.6634,1015.1,2.41,-999.0,yes,yes,no,300534061801400,unknown,unknown,unknown,North
2020-09-01T22:00:02Z,1598997603,2020,22,0,245.9167,245.9167,73.85918,-161.6717,1015.3,2.47,-999.0,yes,yes,no,300534061801400,unknown,unknown,unknown,North
2020-09-01T22:59:57Z,1599001197,2020,23,0,245.9583,245.9583,73.8774,-161.6837,1015.7,2.5,-999.0,yes,yes,no,300534061801400,unknown,unknown,unknown,North
2020-09-02T00:00:00Z,1599004800,2020,0,0,246.0,246.0,73.89594,-161.7009,1015.8,2.55,-999.0,yes,yes,no,300534061801400,unknown,unknown,unknown,North
2020-09-02T01:59:57Z,1599011997,2020,2,0,246.0833,246.0833,73.93338,-161.7484,1016.4,2.75,-999.0,yes,yes,no,300534061801400,unknown,unknown,unknown,North
2020-09-02T03:00:00Z,1599015600,2020,3,0,246.125,246.125,73.95118,-161.7798,1016.2,2.59,-999.0,yes,yes,no,300534061801400,unknown,unknown,unknown,North
2020-09-02T04:00:02Z,1599019203,2020,4,0,246.1667,246.1667,73.96541,-161.8042,1016.0,2.57,-999.0,yes,yes,no,300534061801400,unknown,unknown,unknown,North
2020-09-02T04:59:57Z,1599022797,2020,5,0,246.2083,246.2083,73.97748,-161.8167,1015.9,2.46,-999.0,yes,yes,no,300534061801400,unknown,unknown,unknown,North
2020-09-02T06:00:00Z,1599026400,2020,6,0,246.25,246.25,73.9899,-161.8413,1016.2,2.54,-999.0,yes,yes,no,300534061801400,unknown,unknown,unknown,North
2020-09-02T07:00:02Z,1599030003,2020,7,0,246.2917,246.2917,74.0017,-161.8766,1016.5,2.46,-999.0,yes,yes,no,300534061801400,unknown,unknown,unknown,North